Jaipur, India

5:35 PM IST on April 24, 2017 (GMT +0530)
Jaipur

Weather History for VIJP - January, 2014

Change the Weather History Date:

Tuesday, January 14, 2014

  Actual Average Record
Temperature  
Mean Temperature 58 °F -  
Max Temperature 71 °F - - ()
Min Temperature 46 °F - - ()
Degree Days  
Heating Degree Days 6    
Growing Degree Days 8 (Base 50)    
Moisture  
Dew Point 46 °F    
Average Humidity 62    
Maximum Humidity 100    
Minimum Humidity 36    
Precipitation  
Precipitation 0.00 in - - ()
Sea Level Pressure  
Sea Level Pressure 30.03 in    
Wind  
Wind Speed 3 mph ()    
Max Wind Speed 9 mph    
Max Gust Speed -    
Visibility 1.4 miles    
Events Fog    
T = Trace of Precipitation, MM = Missing Value Source: Averaged Metar Reports

Daily Weather History Graph

Daily Weather History Graph

Search for Another Location

Airport or City:

Trip Planner

Search our weather history database for the weather conditions in past years. The results will help you decide how hot, cold, wet, or windy it might be!

Date:

Astronomy

Jan. 14, 2014 Rise Set
Actual Time 7:17 AM IST 5:54 PM IST
Civil Twilight 6:52 AM IST 6:19 PM IST
Nautical Twilight 6:23 AM IST 6:48 PM IST
Astronomical Twilight 5:55 AM IST 7:16 PM IST
Moon 4:34 PM IST (1/14) 5:33 AM IST (1/14)
Length of Visible Light 11h 27m
Length of Day
10h 37m
Waxing Gibbous, 97% of the Moon is Illuminated
Jan 14
Waxing Gibbous
Jan 16
Full
Jan 24
Last Quarter
Jan 31
New
Feb 7
First Quarter

Hourly Weather History & Observations

Time (IST) Temp. Dew Point Humidity Pressure Visibility Wind Dir Wind Speed Gust Speed Precip Events Conditions
2:30 AM 50 °F 47 °F 86% 30.07 in 1 mi Calm Calm - -   Mist
5:30 AM 50 °F 48 °F 91% 30.04 in 0 mi Calm Calm - - Fog Patches of Fog
6:00 AM 48.2 °F 48.2 °F 100% 30.04 in 0.4 mi Calm Calm - N/A Fog Shallow Fog
8:30 AM 48 °F 48 °F 100% 30.09 in 0 mi Calm Calm - - Fog Heavy Fog
9:30 AM 57.2 °F 48.2 °F 72% 30.12 in 0.8 mi East 4.6 mph - N/A Fog Shallow Fog
11:00 AM 62.6 °F 44.6 °F 52% 30.12 in 1.6 mi ESE 6.9 mph - N/A   Smoke
11:30 AM 63 °F 48 °F 48% 30.07 in 1 mi ESE 9.2 mph - -   Smoke
1:00 PM 68.0 °F 44.6 °F 43% 30.04 in 2.2 mi East 6.9 mph - N/A   Smoke
2:00 PM 69.8 °F 42.8 °F 38% 30.01 in 2.5 mi Variable 3.5 mph - N/A   Haze
3:00 PM 69.8 °F 44.6 °F 40% 29.98 in 2.5 mi SE 4.6 mph - N/A   Haze
4:00 PM 69.8 °F 42.8 °F 38% 29.98 in 2.5 mi SSE 5.8 mph - N/A   Haze
5:00 PM 68.0 °F 44.6 °F 43% 29.98 in 2.5 mi ESE 8.1 mph - N/A   Haze
5:30 PM 66 °F 45 °F 36% 29.95 in 2 mi East 5.8 mph - -   Haze
6:00 PM 62.6 °F 46.4 °F 55% 29.98 in 2.5 mi East 6.9 mph - N/A   Haze
8:00 PM 57.2 °F 46.4 °F 67% 30.01 in 1.2 mi East 5.8 mph - N/A   Haze
8:30 PM 59 °F 48 °F 58% 29.99 in 1 mi East 4.6 mph - -   Haze
9:00 PM 57.2 °F 46.4 °F 67% 30.01 in 1.2 mi East 6.9 mph - N/A   Haze
10:00 PM 57.2 °F 48.2 °F 72% 30.04 in 1.2 mi East 5.8 mph - N/A   Haze
11:00 PM 57.2 °F 48.2 °F 72% 30.04 in 0.9 mi ENE 6.9 mph - N/A   Haze
11:30 PM 58 °F 50 °F 67% 30.01 in 1 mi East 5.8 mph - -   Haze